SCP
0 0 0 0 0 0 0 0 0 0 0 0 -0 -0 -0 -0 -0 -0 0 -0 -0 -0 0 -0 -0 -0 -0 0 0 0 0 0 0 0 0 0 0 0 0 0 0 0 0 0 0 0 0 0 -0 0 -0 0 0 0
0 0 0 0 0 0 0 0 0 0 0 0 0 -0 -0 -0 -0 0 -0 0 0 0 0 -0 -0 -0 -0 0 0 0 0 0 -0 -0 -0 0 0 0 0 0 0 0 0 0 -0 0 0 0 0 -0 0 -0 -0 -0
0 0 0 0 0 0 0 0 0 0 0 0 0 -0 -0 -0 -0 0 -0 0 -0 0 0 0 -0 -0 -0 -0 -0 0 0 0 0 0 0 -0 0 0 0 0 0 0 0 0 0 0 -0 -0 -0 -0 0 0 0 0
0 0 0 0 0 0 0 0 0 0 0 0 0 0 -0 -0 -0 -0 0 0 -0 -0 -0 -0 -0 -0 -0 -0 -0 0 -0 -0 -0 -0 0 0 -0 -0 0 0 0 0 0 0 0 -0 -0 -0 -0 -0 0 0 0 0
0 0 0 0 0 0 0 0 0 0 0 0 0 0 0 0 -0 -0 0 0 0 0 -0 -0 0 -0 -0 -0 -0 -0 -0 -0 -0 -0 -0 -0 -0 0 -0 -0 -0 0 0 0 0 0 0 0 0 0 0 0 0 0
0 0 0 0 0 0 0 0 0 0 0 0 0 0 0 -0 -0 0 0 0 0 0 -0 -0 0 -0 -0 -0 -0 -0 -0 -0 -0 -0 -0 -0 -0 -0 0 0 0 0 -0 -0 -0 0 0 0 0 0 0 0 0 0
0 0 0 0 0 0 0 0 0 0 0 0 0 0 0 0 0 0 0 0 0 0 0 0 -0 0 -0 -0 -0 -0 -0 -0 -0 -0 0 0 0 0 0 0 0 0 0 -0 -0 -0 -0 -0 0 -0 -0 0 0 0
0 0 0 0 0 0 0 0 0 0 0 0 0 0 0 0 0 0 0 0 0 0 0 -0 0 0 -0 0 -0 -0 -0 -0 -0 -0 0 0 0 0 0 0 0 -0 0 0 0 -0 -0 0 0 0 0 0 -0 0
0 0 0 0 0 0 0 0 0 0 0 0 0 0 0 0 0 0 0 0 0 0 -0 0 0 -0 0 0 0 -0 -0 -0 -0 -0 0 0 0 0 -0 0 0 0 0 0 0 0 0 0 0 0 0 0 -0 -0
0 0 0 0 0 0 0 0 0 0 0 0 0 0 0 0 0 0 0 0 0 0 0 0 0 0 0 0 0 -0 0 -0 -0 -0 -0 -0 0 -0 0 0 0 0 0 -0 0 0 0 0 -0 0 0 -0 -0 -0
0 0 0 0 0 0 0 0 0 0 0 0 0 0 0 0 0 0 0 0 0 -0 -0 0 0 0 0 0 0 0 0 0 -0 0 0 -0 0 0 0 0 0 0 0 0 0 0 0 -0 -0 -0 0 0 0 0
0 0 0 0 0 0 0 0 0 0 0 0 0 0 0 0 0 0 0 0 -0 -0 0 0 0 0 0 0 0 0 0 0 0 -0 -0 -0 0 0 0 0 -0 0 0 0 0 0 0 0 0 -0 0 0 0 0
0 0 0 0 0 0 0 0 0 0 0 0 0 0 0 0 0 0 0 0 0 0 0 0 0 0 0 0 0 0 0 0 0 0 -0 -0 0 -0 -0 -0 -0 -0 0 0 0 0 0 -0 -0 0 0 0 0 0
0 0 0 0 0 -0 0 0 0 0 0 0 0 0 0 0 0 0 0 0 0 0 0 0 0 0 0 0 0 0 0 0 0 0 -0 0 -0 -0 -0 -0 -0 -0 0 0 0 -0 -0 -0 -0 -0 -0 0 0 0
0 0 0 0 -0 0 0 0 0 0 0 0 0 0 0 0 0 0 0 0 0 0 0 0 0 0 0 0 0 0 0 0 0 0 0 0 0 0 0 0 0 0 0 0 -0 -0 -0 -0 -0 -0 0 0 0 0
0 0 0 0 0 0 0 0 0 0 0 0 0 0 0 0 0 0 0 0 0 0 0 0 0 0 0 0 0 0 0 0 0 0 0 0 0 0 0 0 0 0 0 0 0 0 0 0 0 0 0 0 0 0
0 0 0 0 -0 0 0 0 0 0 0 0 0 0 0 0 0 0 0 0 0 0 0 0 0 0 0 0 0 0 0 0 0 0 0 0 0 0 0 0 0 0 0 0 0 0 0 0 0 0 0 0 0 0
0 0 0 0 0 0 0 0 0 0 0 0 0 0 0 0 0 0 0 0 0 0 0 0 0 0 0 0 0 0 -0 0 0 0 0 0 0 0 0 0 0 0 0 0 0 0 0 0 0 0 0 0 0 0
0 0 0 0 0 0 0 0 0 0 0 0 0 0 0 0 0 0 0 0 0 0 0 0 0 0 0 -0 -0 0 -0 0 0 0 0 0 0 0 0 0 0 0 0 0 0 0 0 0 0 0 0 0 0 0
0 0 0 0 0 0 0 0 0 0 0 0 0 0 0 0 0 0 0 0 0 0 0 0 0 0 0 0 0 0 0 0 0 0 0 0 0 0 0 0 0 0 0 0 0 0 0 0 0 0 0 0 0 0
0 0 0 0 0 0 0 0 0 0 0 0 0 0 0 0 0 0 0 0 0 0 0 0 0 0 0 0 0 0 0 0 0 0 0 0 0 0 0 0 0 0 0 0 0 0 0 0 0 0 0 0 0 0
0 0 0 0 0 0 0 0 0 0 0 0 0 0 0 0 0 0 0 0 0 0 0 0 0 0 0 0 0 0 0 0 0 0 0 0 0 0 0 0 0 0 0 0 0 0 0 0 0 0 0 0 0 0
0 0 0 0 0 0 0 0 0 0 0 0 0 0 0 0 0 0 0 0 0 0 0 0 0 0 0 0 0 0 0 0 0 0 0 0 0 0 0 0 0 0 0 0 0 0 0 0 0 0 0 0 0 0
0 0 0 0 0 0 0 0 0 0 0 0 0 0 0 0 0 0 0 0 0 0 0 0 0 0 0 0 0 0 0 0 0 0 0 0 0 0 0 0 0 0 0 0 0 0 0 0 0 0 0 0 0 0
0 0 0 0 0 0 0 0 0 0 0 0 0 0 0 0 0 0 0 0 0 0 0 0 0 0 0 0 0 0 0 0 0 0 0 0 0 0 0 0 0 0 0 0 0 0 0 0 0 0 0 0 0 0
0 0 0 0 0 0 0 0 0 0 0 0 0 0 0 0 0 0 0 0 0 0 0 0 0 0 0 0 0 0 0 0 0 0 0 0 0 0 0 0 0 0 0 0 0 0 0 0 0 0 0 0 0 0
0 0 0 0 0 0 0 0 0 0 0 0 0 0 0 0 0 0 0 0 0 0 0 0 0 0 0 0 0 0 0 0 0 0 0 0 0 0 0 0 0 0 0 0 0 0 0 0 0 0 0 0 0 0
0 0 0 0 0 0 0 0 0 0 0 0 0 0 0 0 0 0 0 0 0 0 0 0 0 0 0 0 0 0 0 0 0 0 0 0 0 0 0 0 0 0 0 0 0 0 0 0 0 0 0 0 0 0
0 0 0 0 0 0 0 0 0 0 0 0 0 0 0 0 0 0 0 0 0 0 0 0 0 0 0 0 0 0 0 0 0 0 0 0 0 0 0 0 0 0 0 0 0 0 0 0 0 0 0 0 0 0
0 0 0 0 0 0 0 0 0 0 0 0 0 0 0 0 0 0 0 0 0 0 0 0 0 0 0 0 0 0 0 0 0 0 0 0 0 0 0 0 0 0 0 0 0 0 0 0 0 0 0 0 0 0
0 0 0 0 0 0 0 0 0 0 0 0 0 0 0 0 0 0 0 0 0 0 0 0 0 0 0 0 0 0 0 0 0 0 0 0 0 0 0 0 0 0 0 0 0 0 0 0 0 0 0 0 0 0
0 0 0 0 0 0 0 0 0 0 0 0 0 0 0 0 0 0 0 0 0 0 0 0 0 0 0 0 0 0 0 0 0 0 0 0 0 0 0 0 0 0 0 0 0 0 0 0 0 0 0 0 0 0
0 0 0 0 0 0 0 0 0 0 0 0 0 0 0 0 0 0 0 0 0 0 0 0 0 0 0 0 0 0 0 0 0 0 0 0 0 0 0 0 0 0 0 0 0 0 0 0 0 0 0 0 0 0
Wind_Speed_500mb
99 123 95 117 111 103 97 97 93 87 81 72 63 55 52 53 48 39 35 29 16 13 24 14 8 6 3 2 3 8 5 9 8 9 6 3 4 5 4 5 1 3 5 1 5 11 6 9 12 5 2 3 5 10
103 111 116 129 116 103 101 96 97 91 84 77 68 60 56 54 48 39 40 30 17 13 18 18 11 7 3 2 2 8 4 2 3 7 3 5 3 4 2 5 5 6 8 6 8 9 6 2 8 8 12 13 8 14
98 107 113 133 120 109 107 101 101 95 88 80 72 63 58 53 47 40 36 36 26 24 20 12 10 9 7 8 2 3 4 3 4 5 9 3 7 5 3 5 5 6 5 0 8 6 8 6 9 11 12 18 20 26
98 112 139 136 117 111 106 104 104 99 93 84 75 66 59 53 46 38 37 37 29 17 12 5 15 10 8 7 9 11 9 6 5 4 5 5 5 7 4 5 4 4 5 4 7 12 11 10 12 3 7 11 14 16
101 119 134 131 121 119 110 108 106 103 96 87 78 70 61 54 48 37 33 35 26 6 13 11 11 11 8 7 5 4 3 0 2 1 6 0 3 4 3 4 5 15 10 6 8 6 6 1 12 12 9 9 11 12
104 112 126 136 126 119 114 112 109 106 99 88 80 73 64 54 47 44 15 26 25 14 9 5 10 15 12 7 3 2 1 3 4 5 5 4 1 2 5 4 9 18 12 4 3 10 6 15 16 12 8 10 13 15
106 115 134 138 129 118 112 117 112 109 100 89 81 72 63 57 54 26 12 24 37 20 7 11 5 1 15 9 6 2 3 2 4 6 6 3 3 2 3 5 5 4 23 16 10 11 8 14 6 8 6 4 5 5
104 118 137 139 129 126 114 115 112 112 101 91 81 72 63 59 46 15 17 42 36 13 5 6 1 5 11 6 3 2 3 2 8 6 2 4 1 1 8 26 22 12 12 27 23 20 14 10 16 15 10 7 5 8
121 128 150 143 140 133 122 117 120 113 103 96 86 72 63 40 20 25 34 35 27 8 11 8 9 6 16 7 6 4 2 5 3 3 3 3 3 9 16 17 7 19 18 16 23 26 21 19 19 16 17 12 6 8
127 140 151 144 136 134 128 124 124 117 108 97 85 43 17 29 35 39 17 15 13 10 7 9 16 5 14 8 6 5 4 2 1 5 8 4 7 37 31 23 14 7 24 16 15 17 20 20 21 23 22 20 15 11
144 137 153 144 149 137 137 131 131 121 110 101 35 15 56 63 30 11 9 5 6 3 12 12 10 12 16 8 8 5 5 1 4 6 5 5 7 12 11 14 16 36 32 26 19 12 15 10 4 13 20 17 16 13
142 152 160 156 147 149 140 141 140 138 77 68 43 73 56 16 8 10 5 2 5 11 17 23 17 13 15 11 10 4 6 5 6 2 6 7 8 13 19 15 10 15 26 32 35 32 20 7 6 14 19 21 19 16
125 162 172 154 156 151 148 146 138 106 100 83 40 19 18 9 6 18 18 8 4 25 29 26 15 15 13 7 14 7 7 7 2 5 8 10 5 26 25 18 14 13 11 13 25 39 35 20 15 21 24 25 19 12
157 171 166 161 166 156 154 149 135 119 98 25 17 12 12 10 12 10 11 12 18 24 63 56 23 10 10 9 4 9 4 4 6 3 12 7 29 32 29 24 20 16 14 14 20 27 33 35 26 22 18 13 13 16
174 178 176 174 170 161 159 152 135 112 41 15 17 14 13 12 8 18 29 35 28 72 78 35 20 8 7 9 5 8 6 7 13 10 7 13 38 41 35 34 28 26 24 25 27 34 35 30 20 11 10 8 6 8
183 178 168 174 170 163 154 141 114 70 28 14 11 13 16 14 6 21 26 35 71 88 50 12 10 8 1 10 7 14 13 12 8 9 12 27 41 44 45 42 37 31 28 28 29 29 26 21 16 10 6 6 11 16
187 132 166 175 169 161 144 113 65 32 11 14 7 14 23 18 29 33 43 51 96 63 6 13 10 12 12 6 4 8 11 8 6 12 21 29 41 48 49 45 36 28 24 24 23 21 17 14 10 4 2 8 15 22
152 149 183 178 172 142 105 78 21 12 7 8 9 28 21 22 47 42 37 93 66 25 24 11 22 6 12 13 8 10 27 18 18 20 23 34 44 43 43 41 34 29 27 24 21 18 13 8 3 3 11 18 23 26
146 188 193 191 164 121 42 36 25 10 7 13 34 35 18 31 40 48 74 97 43 21 25 17 9 7 8 18 16 20 33 31 28 31 34 40 43 44 44 41 38 34 28 23 18 12 6 1 6 13 20 24 26 27
193 202 202 174 145 74 18 20 37 13 13 15 27 27 27 26 44 49 90 54 41 15 7 6 7 10 9 10 21 19 27 30 29 40 38 42 44 46 45 46 39 32 26 20 12 6 6 11 16 23 28 29 29 27
200 194 177 156 98 31 18 24 18 14 25 17 43 17 21 38 35 36 44 41 17 7 8 11 12 18 18 20 22 24 27 28 27 28 44 50 50 51 54 47 37 28 20 13 9 10 14 18 23 28 29 28 27 24
160 169 151 103 35 15 17 14 31 27 13 27 21 17 24 14 15 29 33 14 9 14 11 13 24 28 32 33 34 35 35 34 27 28 38 41 48 52 52 44 37 29 24 18 16 18 21 25 26 25 24 23 19 16
162 143 78 40 16 13 15 23 15 10 9 12 14 12 7 8 17 37 14 13 16 27 26 24 32 37 37 40 46 46 43 37 36 36 35 35 33 37 41 41 41 38 31 25 24 24 25 25 23 20 19 15 11 7
124 35 18 11 14 9 18 9 13 16 17 6 7 11 6 12 30 6 6 11 20 29 39 35 37 40 44 42 45 45 43 44 41 38 33 28 26 29 33 37 37 36 32 30 29 27 25 22 20 16 12 10 8 6
24 10 18 12 12 14 10 8 7 7 8 6 9 5 7 15 5 5 6 9 32 37 46 45 40 45 45 49 47 47 45 42 37 36 32 26 25 26 28 29 30 30 31 30 28 26 24 20 17 15 13 12 10 12
15 4 6 9 9 10 12 12 10 11 10 8 7 12 10 6 6 9 7 23 32 42 47 54 54 48 44 46 49 51 51 43 36 38 36 34 34 32 30 29 29 29 29 29 27 24 23 21 18 16 16 17 18 17
11 6 8 13 21 29 16 18 18 10 10 10 10 11 8 10 13 2 8 21 28 35 36 42 52 55 52 46 41 40 40 40 39 38 37 36 36 35 32 30 26 26 25 25 22 18 17 18 19 20 21 23 23 23
11 6 13 12 19 11 14 9 8 7 8 20 26 7 16 5 5 8 10 19 26 28 32 33 37 42 45 45 45 40 40 40 38 35 33 32 32 30 27 24 23 21 18 18 16 15 16 17 18 21 24 26 32 33
12 9 10 11 15 21 16 8 6 7 17 20 8 6 8 9 10 11 14 15 20 23 25 27 29 31 32 35 38 39 37 35 34 34 32 28 24 22 21 19 17 16 16 17 20 21 20 21 23 27 30 31 31 31
13 15 13 13 12 9 9 8 14 33 25 26 27 27 25 25 23 20 16 16 16 17 19 23 26 28 28 28 28 29 31 30 30 28 26 22 21 19 19 17 16 16 17 19 22 26 31 32 34 35 32 32 32 31
8 10 17 17 11 15 44 52 48 40 26 31 36 39 35 25 24 23 19 18 17 17 19 20 21 25 27 29 28 28 29 28 27 27 23 24 19 20 19 18 18 17 17 18 20 22 26 29 29 31 34 34 33 30
14 13 10 10 8 20 16 11 14 16 14 15 15 15 17 13 11 10 13 17 16 15 18 20 19 20 24 26 27 25 23 23 24 22 19 20 22 22 21 21 21 22 22 23 24 25 26 28 32 35 35 34 33 32
16 31 34 23 12 10 9 12 11 12 18 12 14 13 12 10 10 9 13 13 16 19 20 21 22 22 22 22 22 21 22 25 26 27 28 26 21 20 21 22 22 23 24 25 27 29 31 32 32 33 33 33 32 31
Wind_Direction_500mb
220 221 229 229 212 202 186 196 195 194 189 185 182 179 177 173 172 178 168 166 166 131 149 172 171 156 208 353 128 342 19 8 27 56 95 254 101 245 37 250 131 136 87 78 54 60 346 341 331 124 254 26 90 117
217 220 223 217 209 191 190 193 195 192 187 183 180 178 177 176 176 180 174 171 175 148 144 164 163 133 107 14 345 22 98 111 107 88 33 106 22 23 157 338 325 23 162 188 159 202 242 312 75 97 117 114 101 125
215 218 219 216 205 188 186 192 193 189 186 182 179 178 176 177 181 184 182 172 165 125 111 128 131 127 91 30 10 47 56 75 77 77 141 147 75 112 49 283 300 298 173 146 54 279 239 160 126 97 100 99 99 117
214 216 213 210 201 185 185 191 192 187 184 181 178 176 174 175 176 178 177 171 171 143 117 161 154 151 116 86 78 86 104 95 111 99 119 121 124 184 224 233 194 205 123 192 273 279 288 255 215 149 105 120 121 131
210 213 212 213 201 184 184 191 191 185 183 179 177 176 173 171 169 169 172 168 177 187 136 131 164 152 147 127 118 113 109 350 289 220 56 179 145 108 31 66 273 190 188 147 225 190 118 25 193 189 178 184 177 175
208 210 213 209 190 182 182 190 190 183 181 177 176 176 173 171 167 162 156 191 182 167 127 119 177 179 177 172 151 92 77 9 10 22 93 92 55 20 95 213 263 208 194 130 107 163 115 127 110 125 178 218 232 228
201 207 207 206 189 181 181 190 187 182 178 175 175 173 171 170 167 175 179 173 177 172 157 102 139 34 186 184 189 140 35 39 32 78 58 50 113 84 141 218 216 285 205 194 146 147 143 172 170 180 180 239 242 262
198 202 205 197 182 181 181 186 184 179 174 173 172 168 166 165 171 171 143 154 161 157 154 110 223 152 165 162 170 89 13 71 38 73 87 32 257 237 253 247 251 268 194 198 195 200 210 203 223 218 223 224 268 253
203 204 195 190 181 177 178 184 179 174 171 170 168 162 156 160 156 155 151 158 168 177 155 122 137 207 155 113 88 88 13 48 4 69 60 330 272 231 224 223 236 203 190 189 208 219 222 228 228 229 223 213 277 256
199 199 191 192 181 174 176 180 174 172 169 163 157 144 144 160 144 141 133 161 188 211 181 100 128 135 154 134 110 124 25 73 106 272 318 91 261 258 246 229 232 235 204 196 168 190 209 221 233 233 222 237 262 222
197 196 192 184 177 171 176 177 172 167 162 156 158 132 139 139 136 153 134 147 173 305 184 135 140 139 165 125 166 192 170 337 81 259 120 312 280 248 186 195 244 210 193 185 172 163 165 158 182 204 198 204 196 188
191 187 181 178 171 171 175 171 171 166 161 161 149 128 127 147 131 112 173 132 191 215 160 151 137 121 141 146 116 124 131 44 229 356 72 282 252 183 169 168 145 162 206 231 230 205 189 172 156 159 174 176 177 177
187 183 179 174 170 174 174 171 170 159 153 137 126 152 149 156 116 172 185 202 217 173 168 157 126 135 128 142 88 104 91 213 123 52 228 231 250 179 176 169 164 161 168 171 185 197 203 204 173 149 155 162 176 210
183 177 176 174 170 172 168 167 163 157 143 145 140 143 181 189 221 179 179 174 170 167 152 145 116 125 122 81 121 102 235 90 43 335 235 242 190 176 173 164 155 144 138 147 169 178 177 173 165 165 174 202 244 272
176 173 173 168 168 170 167 166 161 158 156 131 149 188 189 160 126 151 148 133 139 154 148 116 88 118 58 97 66 112 41 247 205 229 231 176 167 170 168 157 148 135 121 117 131 152 160 166 175 208 233 236 243 273
170 166 164 164 165 167 162 157 160 165 161 146 142 107 121 102 103 152 154 140 151 152 145 114 112 73 226 135 105 211 138 224 248 223 182 166 169 168 163 158 151 143 133 125 124 132 143 153 162 173 209 272 296 302
162 161 163 163 161 158 154 153 154 165 197 146 130 154 144 153 165 165 165 157 156 154 138 126 104 187 114 52 269 198 203 218 211 169 165 165 169 168 167 165 161 156 153 148 142 138 138 140 141 148 299 317 317 315
163 162 157 155 151 148 153 158 139 126 121 119 146 153 152 142 155 155 159 161 163 173 142 166 130 129 174 173 244 226 212 172 158 161 164 167 169 172 172 171 169 164 158 153 144 135 134 136 150 303 317 323 321 318
158 153 153 155 151 148 142 169 177 99 96 120 130 135 125 141 158 163 162 163 172 158 136 135 93 176 220 214 213 177 179 172 169 163 162 166 169 171 172 171 167 161 155 149 147 144 150 225 310 318 320 318 317 319
155 155 157 152 152 139 115 131 173 131 160 148 135 121 119 133 144 161 162 160 164 170 142 138 203 208 207 196 168 168 174 176 168 161 163 168 171 169 168 164 162 158 155 156 165 200 270 299 313 318 319 319 318 318
149 148 148 149 146 125 103 136 126 116 131 113 126 107 98 124 125 149 158 160 186 222 216 213 212 175 167 165 170 169 167 170 173 179 171 166 168 168 167 168 168 170 179 195 227 269 295 305 311 314 313 312 310 310
146 146 142 143 131 93 87 88 118 119 108 134 115 101 111 106 124 149 160 178 229 219 182 175 184 173 163 154 148 145 148 150 156 157 167 169 172 177 182 187 196 208 221 238 263 281 294 301 304 304 305 304 302 301
141 142 137 143 96 75 115 109 92 107 124 160 118 96 66 122 158 145 173 206 218 209 189 183 182 174 164 158 153 151 148 147 145 144 154 169 182 191 201 211 221 230 240 258 275 286 292 295 293 293 293 288 282 277
138 125 118 95 88 104 130 83 105 111 115 121 98 106 142 130 154 189 199 197 200 190 186 186 188 187 181 176 174 169 166 162 162 159 163 175 187 202 215 224 232 239 249 265 275 279 278 273 275 272 262 249 232 205
108 48 102 75 114 115 103 118 108 86 105 132 101 122 179 145 110 181 209 189 182 181 182 183 185 194 196 193 188 186 183 182 184 188 191 206 220 224 226 232 241 251 261 266 268 267 261 257 245 232 218 203 190 172
82 48 87 131 147 126 162 129 149 135 119 101 83 124 138 130 142 219 175 166 178 184 186 189 189 190 198 205 205 201 200 204 212 213 218 234 245 246 245 247 250 252 257 258 257 256 247 232 222 212 199 183 168 166
108 100 82 88 113 116 96 79 120 104 109 132 159 157 151 160 209 169 155 173 178 186 191 194 198 201 205 205 209 211 215 218 218 229 240 244 245 247 249 251 251 249 250 247 241 230 230 223 207 192 179 166 155 152
82 62 126 141 93 77 114 98 114 124 142 145 138 139 159 151 137 152 161 176 186 188 192 193 195 201 205 210 214 215 218 224 228 230 233 235 237 237 238 241 241 236 222 211 210 209 204 195 187 177 168 165 158 153
53 69 93 61 74 53 44 52 108 111 124 153 106 107 105 78 98 125 140 158 173 186 192 194 196 196 197 202 207 211 213 217 220 222 225 225 225 222 213 207 199 197 196 197 189 173 167 167 168 166 162 161 158 156
26 31 86 52 55 58 9 72 106 119 115 110 107 109 98 99 88 101 115 137 152 165 175 183 186 188 189 192 201 203 204 204 206 208 205 202 200 189 185 185 183 182 184 183 187 183 175 167 164 163 166 166 166 166
42 67 77 62 74 71 106 103 96 94 95 82 103 113 118 120 99 89 103 117 126 140 148 150 159 170 174 178 181 188 189 192 190 186 184 180 179 174 177 176 173 173 174 172 172 174 174 172 173 173 171 173 171 170
35 50 120 101 113 139 100 69 73 78 68 70 66 82 98 99 85 99 103 116 121 137 142 145 149 160 162 161 165 169 171 174 175 174 175 172 168 172 172 169 167 166 169 170 171 176 178 182 179 175 175 176 176 171
61 72 90 104 110 140 137 111 83 90 56 62 55 59 67 79 100 106 125 128 133 133 134 138 144 150 154 158 161 162 165 165 164 162 158 158 164 171 170 169 173 174 176 178 179 179 177 177 178 178 180 180 176 175
Wind_Speed_850mb
99 123 95 117 111 103 97 97 93 87 81 72 63 55 52 53 48 39 35 29 16 13 24 14 8 6 3 2 3 8 5 9 8 9 6 3 4 5 4 5 1 3 5 1 5 11 6 9 12 5 2 3 5 10
103 111 116 129 116 103 101 96 97 91 84 77 68 60 56 54 48 39 40 30 17 13 18 18 11 7 3 2 2 8 4 2 3 7 3 5 3 4 2 5 5 6 8 6 8 9 6 2 8 8 12 13 8 14
98 107 113 133 120 109 107 101 101 95 88 80 72 63 58 53 47 40 36 36 26 24 20 12 10 9 7 8 2 3 4 3 4 5 9 3 7 5 3 5 5 6 5 0 8 6 8 6 9 11 12 18 20 26
98 112 139 136 117 111 106 104 104 99 93 84 75 66 59 53 46 38 37 37 29 17 12 5 15 10 8 7 9 11 9 6 5 4 5 5 5 7 4 5 4 4 5 4 7 12 11 10 12 3 7 11 14 16
101 119 134 131 121 119 110 108 106 103 96 87 78 70 61 54 48 37 33 35 26 6 13 11 11 11 8 7 5 4 3 0 2 1 6 0 3 4 3 4 5 15 10 6 8 6 6 1 12 12 9 9 11 12
104 112 126 136 126 119 114 112 109 106 99 88 80 73 64 54 47 44 15 26 25 14 9 5 10 15 12 7 3 2 1 3 4 5 5 4 1 2 5 4 9 18 12 4 3 10 6 15 16 12 8 10 13 15
106 115 134 138 129 118 112 117 112 109 100 89 81 72 63 57 54 26 12 24 37 20 7 11 5 1 15 9 6 2 3 2 4 6 6 3 3 2 3 5 5 4 23 16 10 11 8 14 6 8 6 4 5 5
104 118 137 139 129 126 114 115 112 112 101 91 81 72 63 59 46 15 17 42 36 13 5 6 1 5 11 6 3 2 3 2 8 6 2 4 1 1 8 26 22 12 12 27 23 20 14 10 16 15 10 7 5 8
121 128 150 143 140 133 122 117 120 113 103 96 86 72 63 40 20 25 34 35 27 8 11 8 9 6 16 7 6 4 2 5 3 3 3 3 3 9 16 17 7 19 18 16 23 26 21 19 19 16 17 12 6 8
127 140 151 144 136 134 128 124 124 117 108 97 85 43 17 29 35 39 17 15 13 10 7 9 16 5 14 8 6 5 4 2 1 5 8 4 7 37 31 23 14 7 24 16 15 17 20 20 21 23 22 20 15 11
144 137 153 144 149 137 137 131 131 121 110 101 35 15 56 63 30 11 9 5 6 3 12 12 10 12 16 8 8 5 5 1 4 6 5 5 7 12 11 14 16 36 32 26 19 12 15 10 4 13 20 17 16 13
142 152 160 156 147 149 140 141 140 138 77 68 43 73 56 16 8 10 5 2 5 11 17 23 17 13 15 11 10 4 6 5 6 2 6 7 8 13 19 15 10 15 26 32 35 32 20 7 6 14 19 21 19 16
125 162 172 154 156 151 148 146 138 106 100 83 40 19 18 9 6 18 18 8 4 25 29 26 15 15 13 7 14 7 7 7 2 5 8 10 5 26 25 18 14 13 11 13 25 39 35 20 15 21 24 25 19 12
157 171 166 161 166 156 154 149 135 119 98 25 17 12 12 10 12 10 11 12 18 24 63 56 23 10 10 9 4 9 4 4 6 3 12 7 29 32 29 24 20 16 14 14 20 27 33 35 26 22 18 13 13 16
174 178 176 174 170 161 159 152 135 112 41 15 17 14 13 12 8 18 29 35 28 72 78 35 20 8 7 9 5 8 6 7 13 10 7 13 38 41 35 34 28 26 24 25 27 34 35 30 20 11 10 8 6 8
183 178 168 174 170 163 154 141 114 70 28 14 11 13 16 14 6 21 26 35 71 88 50 12 10 8 1 10 7 14 13 12 8 9 12 27 41 44 45 42 37 31 28 28 29 29 26 21 16 10 6 6 11 16
187 132 166 175 169 161 144 113 65 32 11 14 7 14 23 18 29 33 43 51 96 63 6 13 10 12 12 6 4 8 11 8 6 12 21 29 41 48 49 45 36 28 24 24 23 21 17 14 10 4 2 8 15 22
152 149 183 178 172 142 105 78 21 12 7 8 9 28 21 22 47 42 37 93 66 25 24 11 22 6 12 13 8 10 27 18 18 20 23 34 44 43 43 41 34 29 27 24 21 18 13 8 3 3 11 18 23 26
146 188 193 191 164 121 42 36 25 10 7 13 34 35 18 31 40 48 74 97 43 21 25 17 9 7 8 18 16 20 33 31 28 31 34 40 43 44 44 41 38 34 28 23 18 12 6 1 6 13 20 24 26 27
193 202 202 174 145 74 18 20 37 13 13 15 27 27 27 26 44 49 90 54 41 15 7 6 7 10 9 10 21 19 27 30 29 40 38 42 44 46 45 46 39 32 26 20 12 6 6 11 16 23 28 29 29 27
200 194 177 156 98 31 18 24 18 14 25 17 43 17 21 38 35 36 44 41 17 7 8 11 12 18 18 20 22 24 27 28 27 28 44 50 50 51 54 47 37 28 20 13 9 10 14 18 23 28 29 28 27 24
160 169 151 103 35 15 17 14 31 27 13 27 21 17 24 14 15 29 33 14 9 14 11 13 24 28 32 33 34 35 35 34 27 28 38 41 48 52 52 44 37 29 24 18 16 18 21 25 26 25 24 23 19 16
162 143 78 40 16 13 15 23 15 10 9 12 14 12 7 8 17 37 14 13 16 27 26 24 32 37 37 40 46 46 43 37 36 36 35 35 33 37 41 41 41 38 31 25 24 24 25 25 23 20 19 15 11 7
124 35 18 11 14 9 18 9 13 16 17 6 7 11 6 12 30 6 6 11 20 29 39 35 37 40 44 42 45 45 43 44 41 38 33 28 26 29 33 37 37 36 32 30 29 27 25 22 20 16 12 10 8 6
24 10 18 12 12 14 10 8 7 7 8 6 9 5 7 15 5 5 6 9 32 37 46 45 40 45 45 49 47 47 45 42 37 36 32 26 25 26 28 29 30 30 31 30 28 26 24 20 17 15 13 12 10 12
15 4 6 9 9 10 12 12 10 11 10 8 7 12 10 6 6 9 7 23 32 42 47 54 54 48 44 46 49 51 51 43 36 38 36 34 34 32 30 29 29 29 29 29 27 24 23 21 18 16 16 17 18 17
11 6 8 13 21 29 16 18 18 10 10 10 10 11 8 10 13 2 8 21 28 35 36 42 52 55 52 46 41 40 40 40 39 38 37 36 36 35 32 30 26 26 25 25 22 18 17 18 19 20 21 23 23 23
11 6 13 12 19 11 14 9 8 7 8 20 26 7 16 5 5 8 10 19 26 28 32 33 37 42 45 45 45 40 40 40 38 35 33 32 32 30 27 24 23 21 18 18 16 15 16 17 18 21 24 26 32 33
12 9 10 11 15 21 16 8 6 7 17 20 8 6 8 9 10 11 14 15 20 23 25 27 29 31 32 35 38 39 37 35 34 34 32 28 24 22 21 19 17 16 16 17 20 21 20 21 23 27 30 31 31 31
13 15 13 13 12 9 9 8 14 33 25 26 27 27 25 25 23 20 16 16 16 17 19 23 26 28 28 28 28 29 31 30 30 28 26 22 21 19 19 17 16 16 17 19 22 26 31 32 34 35 32 32 32 31
8 10 17 17 11 15 44 52 48 40 26 31 36 39 35 25 24 23 19 18 17 17 19 20 21 25 27 29 28 28 29 28 27 27 23 24 19 20 19 18 18 17 17 18 20 22 26 29 29 31 34 34 33 30
14 13 10 10 8 20 16 11 14 16 14 15 15 15 17 13 11 10 13 17 16 15 18 20 19 20 24 26 27 25 23 23 24 22 19 20 22 22 21 21 21 22 22 23 24 25 26 28 32 35 35 34 33 32
16 31 34 23 12 10 9 12 11 12 18 12 14 13 12 10 10 9 13 13 16 19 20 21 22 22 22 22 22 21 22 25 26 27 28 26 21 20 21 22 22 23 24 25 27 29 31 32 32 33 33 33 32 31
Wind_Direction_850mb
220 221 229 229 212 202 186 196 195 194 189 185 182 179 177 173 172 178 168 166 166 131 149 172 171 156 208 353 128 342 19 8 27 56 95 254 101 245 37 250 131 136 87 78 54 60 346 341 331 124 254 26 90 117
217 220 223 217 209 191 190 193 195 192 187 183 180 178 177 176 176 180 174 171 175 148 144 164 163 133 107 14 345 22 98 111 107 88 33 106 22 23 157 338 325 23 162 188 159 202 242 312 75 97 117 114 101 125
215 218 219 216 205 188 186 192 193 189 186 182 179 178 176 177 181 184 182 172 165 125 111 128 131 127 91 30 10 47 56 75 77 77 141 147 75 112 49 283 300 298 173 146 54 279 239 160 126 97 100 99 99 117
214 216 213 210 201 185 185 191 192 187 184 181 178 176 174 175 176 178 177 171 171 143 117 161 154 151 116 86 78 86 104 95 111 99 119 121 124 184 224 233 194 205 123 192 273 279 288 255 215 149 105 120 121 131
210 213 212 213 201 184 184 191 191 185 183 179 177 176 173 171 169 169 172 168 177 187 136 131 164 152 147 127 118 113 109 350 289 220 56 179 145 108 31 66 273 190 188 147 225 190 118 25 193 189 178 184 177 175
208 210 213 209 190 182 182 190 190 183 181 177 176 176 173 171 167 162 156 191 182 167 127 119 177 179 177 172 151 92 77 9 10 22 93 92 55 20 95 213 263 208 194 130 107 163 115 127 110 125 178 218 232 228
201 207 207 206 189 181 181 190 187 182 178 175 175 173 171 170 167 175 179 173 177 172 157 102 139 34 186 184 189 140 35 39 32 78 58 50 113 84 141 218 216 285 205 194 146 147 143 172 170 180 180 239 242 262
198 202 205 197 182 181 181 186 184 179 174 173 172 168 166 165 171 171 143 154 161 157 154 110 223 152 165 162 170 89 13 71 38 73 87 32 257 237 253 247 251 268 194 198 195 200 210 203 223 218 223 224 268 253
203 204 195 190 181 177 178 184 179 174 171 170 168 162 156 160 156 155 151 158 168 177 155 122 137 207 155 113 88 88 13 48 4 69 60 330 272 231 224 223 236 203 190 189 208 219 222 228 228 229 223 213 277 256
199 199 191 192 181 174 176 180 174 172 169 163 157 144 144 160 144 141 133 161 188 211 181 100 128 135 154 134 110 124 25 73 106 272 318 91 261 258 246 229 232 235 204 196 168 190 209 221 233 233 222 237 262 222
197 196 192 184 177 171 176 177 172 167 162 156 158 132 139 139 136 153 134 147 173 305 184 135 140 139 165 125 166 192 170 337 81 259 120 312 280 248 186 195 244 210 193 185 172 163 165 158 182 204 198 204 196 188
191 187 181 178 171 171 175 171 171 166 161 161 149 128 127 147 131 112 173 132 191 215 160 151 137 121 141 146 116 124 131 44 229 356 72 282 252 183 169 168 145 162 206 231 230 205 189 172 156 159 174 176 177 177
187 183 179 174 170 174 174 171 170 159 153 137 126 152 149 156 116 172 185 202 217 173 168 157 126 135 128 142 88 104 91 213 123 52 228 231 250 179 176 169 164 161 168 171 185 197 203 204 173 149 155 162 176 210
183 177 176 174 170 172 168 167 163 157 143 145 140 143 181 189 221 179 179 174 170 167 152 145 116 125 122 81 121 102 235 90 43 335 235 242 190 176 173 164 155 144 138 147 169 178 177 173 165 165 174 202 244 272
176 173 173 168 168 170 167 166 161 158 156 131 149 188 189 160 126 151 148 133 139 154 148 116 88 118 58 97 66 112 41 247 205 229 231 176 167 170 168 157 148 135 121 117 131 152 160 166 175 208 233 236 243 273
170 166 164 164 165 167 162 157 160 165 161 146 142 107 121 102 103 152 154 140 151 152 145 114 112 73 226 135 105 211 138 224 248 223 182 166 169 168 163 158 151 143 133 125 124 132 143 153 162 173 209 272 296 302
162 161 163 163 161 158 154 153 154 165 197 146 130 154 144 153 165 165 165 157 156 154 138 126 104 187 114 52 269 198 203 218 211 169 165 165 169 168 167 165 161 156 153 148 142 138 138 140 141 148 299 317 317 315
163 162 157 155 151 148 153 158 139 126 121 119 146 153 152 142 155 155 159 161 163 173 142 166 130 129 174 173 244 226 212 172 158 161 164 167 169 172 172 171 169 164 158 153 144 135 134 136 150 303 317 323 321 318
158 153 153 155 151 148 142 169 177 99 96 120 130 135 125 141 158 163 162 163 172 158 136 135 93 176 220 214 213 177 179 172 169 163 162 166 169 171 172 171 167 161 155 149 147 144 150 225 310 318 320 318 317 319
155 155 157 152 152 139 115 131 173 131 160 148 135 121 119 133 144 161 162 160 164 170 142 138 203 208 207 196 168 168 174 176 168 161 163 168 171 169 168 164 162 158 155 156 165 200 270 299 313 318 319 319 318 318
149 148 148 149 146 125 103 136 126 116 131 113 126 107 98 124 125 149 158 160 186 222 216 213 212 175 167 165 170 169 167 170 173 179 171 166 168 168 167 168 168 170 179 195 227 269 295 305 311 314 313 312 310 310
146 146 142 143 131 93 87 88 118 119 108 134 115 101 111 106 124 149 160 178 229 219 182 175 184 173 163 154 148 145 148 150 156 157 167 169 172 177 182 187 196 208 221 238 263 281 294 301 304 304 305 304 302 301
141 142 137 143 96 75 115 109 92 107 124 160 118 96 66 122 158 145 173 206 218 209 189 183 182 174 164 158 153 151 148 147 145 144 154 169 182 191 201 211 221 230 240 258 275 286 292 295 293 293 293 288 282 277
138 125 118 95 88 104 130 83 105 111 115 121 98 106 142 130 154 189 199 197 200 190 186 186 188 187 181 176 174 169 166 162 162 159 163 175 187 202 215 224 232 239 249 265 275 279 278 273 275 272 262 249 232 205
108 48 102 75 114 115 103 118 108 86 105 132 101 122 179 145 110 181 209 189 182 181 182 183 185 194 196 193 188 186 183 182 184 188 191 206 220 224 226 232 241 251 261 266 268 267 261 257 245 232 218 203 190 172
82 48 87 131 147 126 162 129 149 135 119 101 83 124 138 130 142 219 175 166 178 184 186 189 189 190 198 205 205 201 200 204 212 213 218 234 245 246 245 247 250 252 257 258 257 256 247 232 222 212 199 183 168 166
108 100 82 88 113 116 96 79 120 104 109 132 159 157 151 160 209 169 155 173 178 186 191 194 198 201 205 205 209 211 215 218 218 229 240 244 245 247 249 251 251 249 250 247 241 230 230 223 207 192 179 166 155 152
82 62 126 141 93 77 114 98 114 124 142 145 138 139 159 151 137 152 161 176 186 188 192 193 195 201 205 210 214 215 218 224 228 230 233 235 237 237 238 241 241 236 222 211 210 209 204 195 187 177 168 165 158 153
53 69 93 61 74 53 44 52 108 111 124 153 106 107 105 78 98 125 140 158 173 186 192 194 196 196 197 202 207 211 213 217 220 222 225 225 225 222 213 207 199 197 196 197 189 173 167 167 168 166 162 161 158 156
26 31 86 52 55 58 9 72 106 119 115 110 107 109 98 99 88 101 115 137 152 165 175 183 186 188 189 192 201 203 204 204 206 208 205 202 200 189 185 185 183 182 184 183 187 183 175 167 164 163 166 166 166 166
42 67 77 62 74 71 106 103 96 94 95 82 103 113 118 120 99 89 103 117 126 140 148 150 159 170 174 178 181 188 189 192 190 186 184 180 179 174 177 176 173 173 174 172 172 174 174 172 173 173 171 173 171 170
35 50 120 101 113 139 100 69 73 78 68 70 66 82 98 99 85 99 103 116 121 137 142 145 149 160 162 161 165 169 171 174 175 174 175 172 168 172 172 169 167 166 169 170 171 176 178 182 179 175 175 176 176 171
61 72 90 104 110 140 137 111 83 90 56 62 55 59 67 79 100 106 125 128 133 133 134 138 144 150 154 158 161 162 165 165 164 162 158 158 164 171 170 169 173 174 176 178 179 179 177 177 178 178 180 180 176 175